Presure
140 189 210 206 207 200 189 182 172 172 171 178 173 176 185 196 192 188 187 182 175 175 192 199 199 195 198 191 192 184 212 207 207 183 206 207 203 209 189 193 189 195 200 219 215 215 247
182 153 151 157 207 197 198 233 207 222 183 173 173 192 193 183 180 181 184 191 206 206 201 191 179 168 208 210 205 210 206 202 193 213 188 196 189 177 190 205 191 241 185 182 197 209 195
181 190 175 188 169 138 152 196 194 194 196 196 194 194 191 190 192 195 206 212 169 164 195 201 186 173 199 187 197 195 186 191 194 201 209 172 189 174 205 209 197 197 181 226 182 190 243
210 178 120 171 195 192 185 160 144 146 152 144 145 177 161 151 151 160 142 142 146 196 192 193 192 181 176 161 187 184 183 204 183 192 193 170 165 157 197 194 207 193 200 206 224 225 225
157 198 184 209 124 187 188 179 185 202 200 189 197 199 192 198 137 136 144 136 192 177 178 178 182 182 179 188 167 169 182 184 176 190 184 183 192 208 176 210 206 207 206 209 193 194 204
179 178 145 163 192 201 172 119 146 173 184 203 187 197 180 168 172 181 192 178 187 185 178 174 176 173 177 172 169 179 178 173 175 180 178 180 199 164 179 213 210 194 199 186 206 212 200
151 152 162 157 154 180 173 185 181 198 179 190 152 148 181 204 193 185 177 189 186 162 153 172 175 173 192 200 186 190 173 178 199 197 179 188 200 203 196 179 193 211 208 199 191 190 178
158 159 157 126 155 159 195 162 205 146 174 188 192 180 195 184 148 193 188 176 168 184 181 190 188 192 184 183 182 186 197 178 171 196 197 193 202 194 181 196 189 184 196 190 208 207 214
145 164 157 149 157 165 158 171 182 180 186 206 181 196 168 166 189 177 153 182 180 152 190 172 167 178 176 172 179 191 181 180 185 191 185 192 189 179 201 207 192 204 232 197 196 216 225
172 162 154 166 158 151 151 146 158 157 180 173 154 190 195 178 177 179 180 181 169 188 167 173 181 180 183 178 172 169 170 169 185 188 186 155 184 189 186 187 188 216 219 211 198 203 186
179 176 158 167 142 147 191 174 153 175 152 151 155 195 191 201 188 182 193 193 189 172 191 188 178 178 186 188 183 171 172 190 187 177 191 176 180 180 206 195 195 205 194 220 179 190 179
158 155 181 167 165 162 159 161 173 161 148 182 148 157 185 176 192 195 190 148 202 179 183 185 181 180 186 184 181 180 182 189 196 161 198 174 210 189 182 180 204 190 206 205 184 182 202
176 142 166 169 159 184 154 148 163 150 158 173 140 158 161 204 194 191 190 196 187 184 182 178 180 185 194 186 183 189 196 190 184 175 191 192 179 194 187 187 190 186 169 176 238 240 241
173 158 158 155 156 175 168 183 189 155 162 156 172 189 180 155 193 175 201 195 196 193 190 198 194 196 193 191 196 191 191 181 180 194 202 199 211 196 203 209 181 193 182 210 234 245 254
177 164 180 162 178 161 159 150 165 174 144 162 191 166 147 193 175 181 190 203 189 204 205 207 186 197 205 180 197 193 189 199 173 204 204 210 203 192 192 200 217 195 192 232 233 213 260
154 161 173 152 167 162 179 183 181 160 157 161 184 154 186 145 181 184 188 195 190 193 203 185 198 212 197 200 191 207 218 193 184 207 194 203 165 202 159 229 208 216 151 226 233 253 253
171 151 153 169 161 153 171 158 164 139 157 176 179 188 162 189 178 187 187 188 209 184 203 200 194 194 202 208 196 204 205 209 199 185 209 166 197 165 211 191 179 214 228 225 245 259 248
166 183 162 159 156 152 149 173 185 185 156 172 179 179 170 196 159 184 175 185 189 204 201 196 186 152 191 209 191 198 198 196 198 201 181 182 181 200 179 161 225 237 251 250 258 252 256
160 123 165 181 161 150 159 187 157 174 158 137 189 178 184 188 181 183 168 184 207 193 206 192 201 193 204 197 173 177 204 209 189 170 175 213 203 188 207 218 233 249 253 259 261 344 369
159 140 167 165 159 169 168 135 165 174 186 176 177 183 171 167 168 171 189 170 215 188 180 212 162 170 191 205 199 203 211 189 194 209 202 194 193 217 215 231 251 261 110 268 361 340 336
164 151 160 167 155 149 157 181 175 162 145 189 183 166 169 133 168 159 180 196 215 184 191 168 185 187 198 203 170 196 203 185 185 204 199 194 203 213 225 244 262 259 329 284 268 447 430
181 173 153 161 173 127 169 183 156 162 161 188 180 178 178 171 168 184 178 196 161 183 151 188 198 206 203 207 200 214 207 190 195 184 190 204 217 226 246 259 260 346 358 378 425 395 409
161 131 157 136 153 174 151 181 167 148 166 184 165 139 184 176 171 172 196 193 200 169 206 203 198 191 172 209 204 189 196 188 180 188 204 215 234 254 258 270 352 341 423 419 414 409 399
170 139 171 171 173 156 169 173 172 179 159 151 183 178 165 184 193 183 190 167 190 184 201 183 195 212 199 209 192 182 189 182 189 198 213 230 247 258 259 354 420 426 407 402 392 397 396
144 154 147 145 176 175 141 182 167 146 178 174 169 165 172 186 181 196 176 175 179 183 205 198 219 194 208 195 177 201 186 196 216 208 230 261 252 261 349 437 415 400 393 391 395 381 387
172 177 170 149 170 155 172 170 176 163 162 184 179 161 186 178 186 177 194 171 206 200 219 189 204 221 174 201 192 209 192 196 204 229 260 252 263 373 434 408 403 388 377 383 377 387 387
173 159 154 179 155 163 166 159 184 165 188 183 174 184 171 188 175 185 185 203 210 194 202 185 207 185 194 214 213 206 198 195 248 241 252 291 403 398 411 397 385 379 378 371 368 356 357
144 161 177 175 149 143 168 172 189 191 183 167 187 160 189 191 191 196 200 209 205 204 214 189 198 214 194 201 221 195 212 225 252 252 305 397 427 408 397 389 373 381 373 354 343 343 342
166 160 169 165 182 166 184 139 189 189 177 181 149 193 189 193 182 195 218 200 194 194 216 209 218 197 216 203 195 214 232 248 247 358 364 425 414 401 389 372 382 362 348 345 347 333 327
Wind_Speed
17 18 22 23 27 29 29 34 32 32 31 32 32 36 38 36 33 32 33 35 37 38 36 35 33 32 29 30 32 30 21 23 25 34 26 25 28 25 39 38 43 40 37 36 42 43 35
14 17 19 17 17 18 20 27 28 31 35 34 33 33 31 32 32 32 35 35 33 31 29 33 32 33 25 26 25 27 27 25 28 31 36 34 37 44 40 35 43 41 51 50 47 43 50
11 11 16 16 19 19 19 15 18 21 24 28 30 29 29 30 32 33 30 25 30 33 31 27 33 33 29 31 32 32 29 31 35 35 34 44 36 48 39 40 44 45 54 47 56 49 47
12 12 22 18 11 11 12 23 24 25 27 28 28 26 27 27 28 31 30 32 33 25 27 27 30 35 38 39 36 36 35 38 36 40 41 46 48 50 46 42 46 45 45 45 51 49 51
18 15 14 19 24 15 15 19 17 9 12 19 17 16 21 17 31 32 35 35 25 34 36 37 36 37 40 40 42 42 40 44 42 48 46 47 51 51 49 52 50 49 50 50 44 45 44
20 18 23 20 23 21 19 26 27 20 19 15 20 20 26 36 32 27 23 32 28 30 35 39 41 39 42 42 45 48 47 46 47 51 49 51 52 50 50 57 58 54 55 47 59 54 44
22 25 20 23 24 21 21 23 20 24 20 26 31 35 28 24 26 26 32 28 31 44 49 42 43 47 42 44 50 52 52 54 49 51 56 59 56 57 58 54 59 64 64 64 55 45 53
20 22 26 32 24 27 19 23 20 32 29 26 27 33 30 35 37 30 35 37 41 32 38 41 44 44 44 47 50 51 50 56 56 53 54 57 56 62 63 66 57 57 68 64 72 72 68
26 24 27 29 27 30 30 26 26 27 31 28 30 30 33 39 33 39 41 40 42 50 43 49 53 49 51 54 53 53 56 58 59 57 61 61 62 67 68 64 64 71 58 67 74 60 60
39 26 23 30 28 31 33 36 34 35 33 32 41 28 28 37 38 39 41 46 48 48 51 52 50 52 55 56 59 61 62 63 62 63 65 57 68 71 74 77 75 63 70 72 77 77 66
37 39 37 37 40 34 39 34 36 33 38 40 43 32 36 30 35 39 41 45 48 53 50 50 55 58 56 58 58 64 66 65 66 67 69 73 75 77 71 68 83 76 84 62 65 79 59
39 42 41 39 41 34 32 36 38 33 41 46 46 47 39 41 40 40 42 47 46 51 50 53 56 60 61 60 60 63 67 67 68 72 71 79 70 80 84 83 81 78 80 81 78 73 69
42 41 47 39 38 46 37 45 38 40 42 50 52 48 51 38 41 41 44 47 49 50 54 58 62 65 65 65 65 65 66 63 71 75 76 77 86 84 90 94 93 89 65 78 101 103 93
44 48 47 46 39 48 50 48 53 44 49 47 49 51 50 59 45 55 47 48 53 56 58 58 60 61 65 67 66 68 66 70 76 77 73 76 73 75 81 86 69 90 97 95 119 111 109
48 52 48 53 51 50 45 45 52 55 52 54 59 58 63 59 48 44 53 49 49 53 51 53 57 60 61 69 67 70 72 71 82 75 73 73 74 90 93 86 93 99 102 114 122 102 116
56 50 53 47 51 55 58 57 62 52 50 57 63 60 59 70 53 60 57 60 54 57 55 56 57 61 61 64 67 72 67 74 80 77 82 86 64 83 60 103 95 95 78 115 125 123 118
66 52 57 59 58 51 61 58 59 53 56 64 60 67 59 67 57 67 68 69 63 56 62 59 65 59 66 69 72 71 73 79 72 89 88 64 92 69 96 97 86 112 122 124 128 119 119
70 66 61 65 63 54 56 62 68 67 64 67 66 62 67 74 63 69 54 68 72 67 68 69 62 66 72 80 71 74 75 79 82 84 94 88 77 92 93 82 120 130 131 131 128 117 121
73 41 75 72 71 55 60 70 59 66 65 62 74 62 69 75 69 73 58 78 78 72 76 73 77 82 86 78 70 78 90 89 85 86 85 103 99 98 93 113 128 135 131 129 129 122 106
78 55 75 78 64 77 66 52 70 70 71 69 67 71 63 72 61 74 84 66 74 75 63 83 70 76 78 91 84 91 99 85 94 99 97 103 102 110 113 130 139 134 24 131 109 108 106
90 74 86 78 65 52 66 76 76 65 60 79 76 60 70 58 74 66 80 85 76 69 85 81 87 81 91 94 84 90 98 94 95 99 103 106 103 112 130 144 136 132 125 89 86 66 69
82 88 76 84 89 50 68 81 63 70 67 85 78 78 81 70 63 88 84 102 80 79 66 89 95 98 99 95 97 104 101 96 99 98 107 106 122 131 148 145 140 123 113 90 66 62 65
91 37 77 44 61 93 50 90 72 52 75 84 72 62 91 81 69 88 98 104 92 70 103 94 98 89 90 102 99 99 94 100 94 102 108 121 141 149 142 141 121 113 64 60 58 56 56
90 44 88 94 97 68 94 93 90 91 73 72 94 86 63 101 102 93 102 77 97 88 100 97 95 105 93 103 92 96 100 100 103 104 120 138 147 148 144 118 67 58 56 55 54 50 49
44 82 41 34 97 98 48 96 90 66 93 85 72 66 79 101 95 107 75 73 81 93 105 100 102 85 105 93 93 104 104 108 122 117 137 143 148 143 118 53 55 59 54 51 45 45 44
100 94 94 49 95 86 97 96 95 83 76 100 93 65 104 87 104 82 110 75 110 102 108 77 100 100 93 103 104 120 107 105 114 140 149 152 147 99 47 55 49 51 54 47 45 40 39
105 78 65 102 63 80 84 72 100 85 100 96 86 98 81 107 79 98 94 115 101 96 88 89 98 91 105 120 121 117 111 105 146 147 151 140 73 69 49 50 49 48 42 44 40 42 44
67 86 106 105 61 51 97 85 101 100 95 71 102 80 102 106 106 109 100 114 99 106 103 84 106 119 101 108 122 108 118 132 152 148 131 76 47 48 46 46 43 37 33 38 42 40 38
96 59 103 97 105 97 107 56 99 100 88 91 69 93 101 104 76 104 108 96 86 87 114 111 115 103 123 112 105 121 140 147 144 115 103 49 45 43 43 44 36 31 34 35 33 33 36
Wind_Direction
291 263 253 258 263 263 263 262 275 279 283 277 287 286 282 282 285 286 288 288 290 292 296 299 301 300 295 292 292 287 303 298 299 277 285 281 268 285 264 263 266 267 272 276 273 275 277
301 282 287 296 262 262 271 268 273 273 275 279 286 282 284 284 285 288 290 291 294 295 297 298 293 293 311 319 316 324 314 304 292 312 275 281 273 275 273 275 271 295 268 270 272 266 269
312 312 304 296 290 284 289 274 274 273 273 276 280 282 286 287 289 290 291 295 293 295 297 301 293 292 320 295 316 311 295 299 308 310 304 271 280 273 301 295 274 272 271 292 272 265 284
14 312 275 298 314 306 297 293 290 294 293 294 293 290 288 283 283 291 284 287 288 302 301 310 308 294 289 286 308 303 300 311 295 306 303 276 278 276 297 290 294 280 286 286 292 291 291
295 22 339 10 280 315 311 300 296 335 313 298 301 301 294 295 284 285 286 284 299 291 289 294 304 308 303 310 287 294 305 307 292 305 302 299 302 307 290 305 299 296 296 296 275 278 290
328 326 277 291 1 4 307 285 289 298 298 349 301 311 289 289 288 295 310 293 311 309 300 297 298 297 301 297 293 303 301 298 299 300 296 297 300 285 287 302 300 292 297 279 295 295 284
286 287 308 290 288 336 328 340 326 350 305 330 294 290 304 332 316 305 293 310 308 288 293 300 301 299 311 309 301 301 298 299 303 302 297 299 305 303 298 289 295 295 296 296 291 278 262
293 298 291 277 287 304 340 302 347 293 319 329 328 322 328 319 292 317 310 297 296 301 302 304 300 303 299 300 300 303 308 299 299 306 306 303 305 303 296 298 297 293 296 293 291 290 290
263 295 286 282 296 300 302 316 320 327 344 352 325 327 297 308 314 304 294 308 301 292 304 295 295 297 295 295 298 307 303 299 303 304 301 303 301 297 301 294 293 294 290 284 296 289 279
299 295 270 294 286 287 289 287 302 300 323 310 304 326 322 312 308 308 304 300 295 302 295 293 295 296 300 296 295 297 298 298 300 301 298 288 298 298 296 295 296 304 293 293 293 292 290
296 296 284 297 276 278 313 298 293 303 297 298 302 334 318 309 310 298 296 289 289 294 296 296 292 294 300 300 297 293 294 299 298 296 297 295 296 296 295 296 296 290 294 292 292 295 279
289 281 297 293 298 293 284 294 298 292 290 320 296 301 316 309 312 312 302 298 299 293 295 299 295 294 297 295 295 294 294 297 301 297 298 296 301 295 297 299 298 298 293 294 289 279 280
285 264 292 293 289 299 278 281 295 283 295 311 291 304 304 317 317 312 309 306 299 296 293 292 293 293 294 292 293 295 297 299 296 293 295 292 296 294 296 296 296 298 285 294 318 314 304
282 284 288 285 286 299 301 305 308 286 299 293 308 318 320 296 318 306 315 306 303 293 291 292 295 297 295 296 296 295 297 294 294 300 295 291 310 301 294 302 296 293 299 304 317 314 309
281 286 285 287 292 292 289 282 303 309 282 304 315 303 292 318 305 313 324 317 309 304 301 299 296 300 300 293 299 297 295 298 293 304 303 309 302 292 293 300 309 296 296 318 314 296 307
282 281 283 284 286 292 293 291 297 295 296 303 313 294 317 288 317 317 321 326 306 313 304 298 307 309 302 303 297 309 313 294 289 310 292 304 307 301 295 313 305 311 285 315 315 311 309
278 278 285 284 282 287 286 294 299 282 296 305 308 312 308 320 316 324 323 322 320 304 314 313 308 310 312 314 306 313 314 318 301 288 317 302 302 298 309 302 297 313 316 313 311 311 308
275 283 276 282 286 286 285 295 293 296 293 304 309 311 304 317 289 322 310 318 317 322 320 316 305 301 315 318 301 310 315 306 307 311 295 309 299 301 302 296 316 316 310 312 311 309 306
276 267 280 280 280 284 291 292 287 291 293 284 304 306 314 317 312 317 298 319 315 320 317 319 318 319 317 314 304 307 318 315 297 302 305 316 304 303 305 315 316 314 314 313 310 300 300
274 271 278 279 278 284 286 277 293 296 297 300 305 308 306 299 291 303 313 305 311 318 302 315 311 310 312 318 312 318 317 301 306 313 306 301 304 313 316 317 315 313 290 310 301 299 298
272 276 275 276 281 276 282 289 291 292 283 301 302 296 302 295 302 290 314 313 312 307 316 294 315 310 317 315 300 312 312 302 304 308 302 308 308 316 317 316 314 314 306 298 301 289 288
268 273 280 285 285 269 285 289 292 295 299 302 302 306 306 307 296 309 307 317 302 311 306 315 317 317 317 315 314 316 315 298 303 305 304 308 314 316 315 315 315 306 306 303 295 293 292
269 253 280 255 286 285 283 289 294 286 298 302 294 292 305 305 303 308 310 314 311 297 314 315 315 314 305 316 317 305 306 302 310 306 310 315 316 315 318 314 309 308 300 299 299 297 296
262 261 271 275 278 296 288 290 292 293 289 294 302 301 295 304 304 307 309 303 315 303 313 307 310 312 314 317 304 303 304 305 306 311 315 317 318 316 316 310 305 304 303 301 302 300 297
260 275 266 277 274 278 263 282 290 290 294 299 295 295 297 301 304 306 305 301 304 303 311 312 312 310 317 309 309 307 304 307 312 314 316 314 318 315 310 305 308 305 305 304 305 303 301
260 260 267 280 273 281 280 285 285 295 298 291 295 289 298 301 302 304 308 293 309 314 308 305 317 308 305 314 305 314 306 309 314 315 314 316 315 310 306 308 308 308 306 307 307 311 307
259 262 270 264 273 274 276 290 280 292 284 287 287 292 293 298 299 301 305 305 305 311 312 309 310 304 307 314 314 308 308 312 313 316 316 313 309 310 308 306 307 307 306 307 311 314 318
260 261 263 266 272 279 279 279 276 280 285 291 287 285 295 298 299 303 304 306 310 315 310 306 311 313 312 308 309 307 313 314 313 314 310 307 304 307 306 304 307 304 302 303 310 315 316
265 265 268 274 266 278 269 278 276 279 285 287 293 292 297 297 295 304 305 311 306 310 311 312 312 308 313 305 307 311 315 316 316 309 310 304 302 306 302 305 306 303 301 304 309 313 313